[[{"header":{"parameterUnit":"m.s-1","parameterCategory":1,"la1":30.2991,"la2":30.254,"lo1":-89.0895,"lo2":-89.0444,"dy":0.0017,"dx":0.0017,"nx":28,"ny":28,"refTime":"2024-05-09T21:00:00:Z","depth":0,"parameterNumber":2,"parameterNumberName":"U-component_of_WINDS"},"data":[0,0,0,0,0,0,0,0,0,0,0,0,0,0,0,0,0,0,0,0,0,0,0,0,0,0,0,0,0,0,0,0,0,0,0,0,0,0,0,0,0,0,0,0,0,0,0,0,0,0,0,0,0,0,0,0,0,0,0.8455,0.8455,0,0.8441,0.844,0.844,0.8375,0.8373,0.8372,0.837,0.8358,0.8359,0.836,0,0,0,0,0,0,0,0,0,0,0,0,0,0.8428,0.8428,0.8455,0.8455,0.8454,0.8441,0.844,0.844,0.8375,0.8373,0.8372,0.837,0.8358,0.8359,0.836,0,0,0,0,0,0,0,0,0,0,0,0,0,0.8429,0.8429,0.8455,0.842,0.8417,0.8441,0.844,0.844,0.8376,0.8373,0.8371,0.8369,0.8357,0.8359,0.836,0.8417,0,0,0.8365,0.8366,0,0,0,0,0,0,0,0,0.8429,0.843,0.8426,0.8423,0.8419,0.8407,0.8426,0.8432,0.8376,0.8391,0.837,0.8368,0.8376,0.8376,0.8379,0.8416,0.8416,0.8366,0.8367,0.8367,0.8368,0,0,0,0,0,0,0,0.8429,0.843,0.8449,0.8426,0.8422,0.8406,0.8404,0.8427,0.8397,0.839,0.8385,0.8384,0.8374,0.8377,0.8378,0.8415,0.8366,0.8367,0.8368,0.8369,0.8499,0.8501,0,0,0,0,0,0,0.8434,0.8431,0.845,0.8449,0.8418,0.8409,0.8406,0.8413,0.8397,0.8392,0.8386,0.8381,0.8376,0.8376,0.8377,0.8442,0.8367,0.8369,0.837,0.8496,0.8499,0.8502,0,0,0,0,0,0,0.8433,0.8436,0.845,0.8438,0.8439,0.8411,0.842,0.8414,0.8417,0.8394,0.8388,0.8395,0.8374,0.8375,0.8407,0.8441,0.837,0.8371,0.8493,0.8497,0.8501,0.8573,0,0,0,0,0,0,0.8433,0.8436,0.8457,0.8439,0.844,0.848,0.8422,0.8416,0.842,0.8413,0.84,0.8396,0.8372,0.8405,0.8409,0.8442,0.8372,0.849,0.8495,0.8499,0.8567,0.8579,0.8588,0,0,0,0,0,0.8432,0.8478,0.8458,0.8461,0.8465,0.8482,0.8483,0.8453,0.8423,0.8444,0.8429,0.8396,0.8437,0.8409,0.8413,0.8447,0.8488,0.8494,0.8499,0.8563,0.8576,0.8588,0,0,0,0,0,0,0.8501,0.8475,0.8453,0.8494,0.8491,0.8471,0.8496,0.8469,0.8474,0.8468,0.8432,0.843,0.8468,0.846,0.843,0.85,0.8457,0.8463,0.8504,0.8517,0.8527,0.8528,0.8374,0,0,0,0,0,0.8521,0.8536,0.8513,0.8552,0.8551,0.8525,0.8531,0.8509,0.8504,0.8502,0.8489,0.8487,0.8498,0.8507,0.8517,0.8566,0.8562,0.8591,0.8601,0.861,0.8616,0.8642,0.8655,0.852,0.852,0.852,0,0,0.8562,0.855,0.8562,0.8566,0.856,0.8578,0.8524,0.8544,0.8557,0.8505,0.8535,0.8526,0.852,0.8561,0.8579,0.8556,0.8653,0.8617,0.8624,0.8626,0.8649,0.8662,0.8674,0.8524,0.8523,0.8523,0,0,0.8647,0.8639,0.8671,0.8667,0.8659,0.8641,0.8648,0.8633,0.8624,0.8653,0.8615,0.863,0.8651,0.8649,0.8651,0.8735,0.8705,0.8739,0.8794,0.8819,0.883,0.8839,0.887,0.8881,0.8745,0.8745,0.8745,0,0.87,0.8724,0.8691,0.8714,0.8717,0.867,0.8703,0.87,0.8697,0.87,0.8675,0.87,0.8693,0.8734,0.8754,0.8757,0.8765,0.874,0.8831,0.884,0.8848,0.8877,0.8888,0.8749,0.8749,0.8749,0.8748,0,0.8789,0.8807,0.8833,0.883,0.8836,0.8864,0.8836,0.8846,0.8824,0.8808,0.8839,0.8829,0.8836,0.8843,0.8822,0.8881,0.8867,0.8837,0.8792,0.8866,0.8892,0.8903,0.8755,0.8754,0.8753,0.8752,0,0,0.8917,0.8895,0.8906,0.8904,0.8892,0.8905,0.8931,0.8937,0.8947,0.8946,0.8967,0.8986,0.8958,0.896,0.8938,0.8961,0.9029,0.8927,0.8927,0.8947,0.9094,0.9117,0.913,0.9009,0.9011,0.9012,0.9094,0,0.8998,0.904,0.9012,0.9059,0.9075,0.9031,0.9054,0.905,0.9036,0.9048,0.9033,0.9048,0.9009,0.901,0.903,0.9016,0.9058,0.901,0.9029,0.903,0.9032,0.9144,0.9168,0.9246,0.9104,0.9106,0.9107,0,0.9098,0.9101,0.915,0.9135,0.9141,0.9162,0.9165,0.9177,0.9172,0.916,0.9163,0.9135,0.916,0.9116,0.915,0.9118,0.9125,0.9119,0.9121,0.9122,0.9074,0.9149,0.927,0.9282,0.9123,0.9122,0.9121,0,0.9187,0.9203,0.9235,0.9235,0.9218,0.9234,0.9228,0.922,0.9226,0.9229,0.9232,0.9239,0.9243,0.9249,0.9224,0.9194,0.9262,0.9216,0.9254,0.9255,0.9271,0.927,0.9396,0.9274,0.9274,0.9274,0.9273,0,0.9281,0.9313,0.9274,0.9294,0.9328,0.9295,0.9331,0.932,0.9314,0.9331,0.9293,0.931,0.9276,0.929,0.927,0.9302,0.9304,0.9296,0.9291,0.93,0.9301,0.9304,0.9298,0.9277,0.9276,0.9275,0.9275,0,0.9386,0.9361,0.9393,0.9375,0.9371,0.9397,0.9382,0.94,0.9383,0.9406,0.9409,0.9384,0.9398,0.9374,0.9385,0.9372,0.9417,0.9403,0.9419,0.9415,0.9455,0.9452,0.9587,0.9603,0.9471,0.9472,0.9473,0,0.9447,0.9471,0.9455,0.9463,0.9459,0.9474,0.9479,0.9448,0.9455,0.9451,0.947,0.948,0.9488,0.9513,0.9496,0.9505,0.9491,0.9538,0.9492,0.9501,0.9492,0.9492,0.9494,0.9548,0.9549,0.955,0.9551,0,0.9559,0.9546,0.9555,0.956,0.9568,0.9571,0.9571,0.958,0.9547,0.9557,0.9571,0.9577,0.9588,0.96,0.9605,0.9599,0.9571,0.9566,0.9575,0.9585,0.9593,0.959,0.9445,0.9563,0.9562,0.9561,0.956,0.956,0.9644,0.9663,0.9655,0.9667,0.9664,0.9665,0.968,0.9666,0.9677,0.9684,0.9665,0.9683,0.9678,0.9681,0.9679,0.9693,0.9672,0.9686,0.969,0.9694,0.97,0.9591,0.9694,0.9694,0.9693,0.9693,0.9693,0,0.9755,0.9747,0.9758,0.9759,0.9769,0.974,0.9739,0.9749,0.9765,0.9762,0.977,0.9787,0.9798,0.9782,0.9791,0.9806,0.9793,0.9809,0.9808,0.9807,0.9718,0.9709,0.982,0.982,0.982,0.982,0.982,0.9819,0.9813,0.9844,0.983,0.9859,0.9851,0.9869,0.9871,0.9872,0.9869,0.9889,0.9898,0.9887,0.988,0.9888,0.9897,0.9892,0.9897,0.9919,0.9909,0.9826,0.9814,0.9802,0.9793,0.992,0.992,0.9998,0.9998,0.9999]},{"header":{"parameterUnit":"m.s-1","parameterCategory":1,"la1":30.2991,"la2":30.254,"lo1":-89.0895,"lo2":-89.0444,"dy":0.0017,"dx":0.0017,"nx":28,"ny":28,"refTime":"2024-05-09T21:00:00:Z","depth":0,"parameterNumber":3,"parameterNumberName":"V-component_of_WINDS"},"data":[0,0,0,0,0,0,0,0,0,0,0,0,0,0,0,0,0,0,0,0,0,0,0,0,0,0,0,0,0,0,0,0,0,0,0,0,0,0,0,0,0,0,0,0,0,0,0,0,0,0,0,0,0,0,0,0,0,0,4.7534,4.7535,0,4.7629,4.763,4.7631,4.7605,4.7603,4.7601,4.76,4.7696,4.77,4.7704,0,0,0,0,0,0,0,0,0,0,0,0,0,4.733,4.7334,4.7534,4.7535,4.7537,4.7629,4.763,4.7631,4.7606,4.7603,4.7601,4.7599,4.7694,4.7699,4.7704,0,0,0,0,0,0,0,0,0,0,0,0,0,4.7421,4.7335,4.7534,4.7535,4.7536,4.7629,4.763,4.7632,4.7606,4.7603,4.76,4.7598,4.7692,4.7699,4.7705,4.7803,0,0,4.7725,4.7728,0,0,0,0,0,0,0,0,4.7416,4.7429,4.7533,4.7535,4.7536,4.7602,4.7593,4.7689,4.7607,4.7579,4.76,4.7596,4.7667,4.7675,4.7699,4.7807,4.7811,4.7726,4.773,4.7732,4.7734,0,0,0,0,0,0,0,4.741,4.7425,4.7572,4.7535,4.7537,4.753,4.754,4.7611,4.7638,4.7581,4.758,4.7591,4.7667,4.7693,4.7701,4.7813,4.7725,4.7731,4.7735,4.7738,4.8008,4.8011,0,0,0,0,0,0,4.7403,4.7419,4.7569,4.7574,4.7468,4.7536,4.7547,4.7584,4.7637,4.7642,4.7594,4.759,4.7683,4.7694,4.7705,4.7824,4.7732,4.7738,4.7742,4.8004,4.8008,4.8012,0,0,0,0,0,0,4.7398,4.7416,4.7565,4.7497,4.7515,4.7543,4.7584,4.7587,4.7613,4.7646,4.7651,4.7616,4.7682,4.7695,4.7779,4.7827,4.7741,4.7747,4.8,4.8005,4.801,4.8062,0,0,0,0,0,0,4.7393,4.7415,4.7452,4.7498,4.7519,4.7638,4.7587,4.7591,4.7625,4.7621,4.7668,4.7673,4.768,4.7769,4.7786,4.7834,4.7752,4.7996,4.8003,4.8008,4.8056,4.8068,4.8078,0,0,0,0,0,4.7385,4.7462,4.7454,4.7472,4.7566,4.764,4.7652,4.7659,4.7629,4.7667,4.7688,4.7672,4.7819,4.7778,4.7796,4.7847,4.7993,4.8001,4.8008,4.8051,4.8065,4.8078,0,0,0,0,0,0,4.742,4.7468,4.746,4.7553,4.7593,4.7636,4.7684,4.7674,4.7723,4.7717,4.7723,4.7734,4.782,4.7842,4.7796,4.7945,4.7902,4.7913,4.7928,4.7942,4.7953,4.7946,4.7758,0,0,0,0,0,4.7439,4.7496,4.7534,4.7613,4.7634,4.7656,4.7688,4.769,4.7732,4.7748,4.7776,4.7816,4.7872,4.7908,4.7961,4.8059,4.807,4.8103,4.8114,4.8123,4.8133,4.8188,4.8204,4.8036,4.8036,4.8036,0,0,4.7478,4.7511,4.7546,4.7621,4.7652,4.7711,4.767,4.7733,4.7777,4.7758,4.7839,4.7861,4.7906,4.7998,4.804,4.8019,4.8182,4.8132,4.8139,4.8144,4.8197,4.8213,4.8227,4.8041,4.804,4.8039,0,0,4.7579,4.761,4.768,4.7712,4.776,4.7775,4.7791,4.7836,4.785,4.7932,4.7919,4.7972,4.8066,4.81,4.813,4.8247,4.8234,4.8263,4.8321,4.8375,4.8388,4.84,4.8443,4.8458,4.8273,4.8273,4.8273,0,4.7621,4.771,4.7716,4.7782,4.7816,4.7802,4.7874,4.7905,4.7967,4.7991,4.7967,4.8087,4.8117,4.8217,4.8246,4.827,4.829,4.8258,4.8386,4.8398,4.8409,4.845,4.8466,4.8277,4.8276,4.8276,4.8275,0,4.776,4.7822,4.7872,4.7935,4.7974,4.8042,4.806,4.8099,4.8098,4.8115,4.8199,4.8235,4.8296,4.8319,4.8319,4.8421,4.8406,4.8384,4.834,4.8428,4.8467,4.8483,4.8281,4.828,4.8279,4.8278,0,0,4.7885,4.7952,4.797,4.7999,4.8052,4.81,4.8168,4.8228,4.8262,4.8306,4.8364,4.8446,4.8426,4.846,4.8463,4.851,4.8603,4.8483,4.8484,4.8505,4.8719,4.8736,4.8754,4.8594,4.8597,4.86,4.8715,0,4.7991,4.8112,4.8121,4.8229,4.8287,4.8276,4.8335,4.8374,4.8393,4.8444,4.8464,4.8523,4.8492,4.8512,4.8559,4.8581,4.8646,4.8573,4.8649,4.8652,4.8639,4.8774,4.8792,4.8899,4.873,4.8733,4.8735,0,4.8132,4.8182,4.8297,4.8343,4.8368,4.8421,4.8478,4.8528,4.8572,4.8582,4.8621,4.8618,4.8689,4.8643,4.8741,4.8691,4.8723,4.8739,4.8744,4.8751,4.8699,4.8786,4.8933,4.895,4.8759,4.8757,4.8755,0,4.8213,4.8309,4.839,4.8415,4.8471,4.851,4.8535,4.8577,4.8613,4.8662,4.8686,4.8743,4.8775,4.8819,4.8832,4.8797,4.8931,4.8885,4.8942,4.8942,4.8971,4.8969,4.9126,4.899,4.899,4.8989,4.8989,0,4.8332,4.8403,4.8428,4.8478,4.8558,4.8568,4.8646,4.8669,4.8707,4.8762,4.8755,4.8806,4.882,4.8875,4.8885,4.8966,4.898,4.8991,4.8993,4.8992,4.8991,4.9013,4.9006,4.8994,4.8993,4.8992,4.8991,0,4.8436,4.8455,4.8544,4.8591,4.8604,4.8661,4.8701,4.8749,4.8767,4.8837,4.8854,4.8882,4.8946,4.8963,4.9039,4.9047,4.9142,4.9137,4.9127,4.9127,4.9184,4.9179,4.9361,4.9386,4.9233,4.9234,4.9236,0,4.8511,4.8565,4.8618,4.8655,4.8682,4.8741,4.8779,4.8791,4.883,4.8886,4.8929,4.8992,4.9043,4.9146,4.9173,4.9232,4.9229,4.9289,4.9238,4.9236,4.9232,4.9229,4.9235,4.9299,4.93,4.9302,4.9303,0,4.8642,4.8649,4.8704,4.8763,4.8808,4.8854,4.8899,4.8929,4.8948,4.8993,4.9059,4.9098,4.9177,4.9241,4.9301,4.9327,4.9319,4.9319,4.9335,4.9335,4.9328,4.9334,4.9155,4.9315,4.9313,4.9313,4.9312,4.9311,4.8734,4.8783,4.8829,4.889,4.8926,4.8968,4.9017,4.9041,4.9096,4.9162,4.9166,4.9238,4.9283,4.9363,4.9392,4.9449,4.9431,4.9455,4.9461,4.9467,4.9472,4.9319,4.946,4.946,4.9459,4.9459,4.9459,0,4.8866,4.8896,4.8952,4.9016,4.9064,4.9053,4.9102,4.9144,4.9207,4.925,4.9301,4.9378,4.944,4.9473,4.9535,4.9574,4.9572,4.959,4.9588,4.9594,4.9484,4.9464,4.9591,4.9591,4.9591,4.9591,4.9591,4.9591,4.8941,4.9023,4.9037,4.9137,4.9165,4.9236,4.9266,4.9305,4.934,4.9426,4.9478,4.9499,4.9539,4.9604,4.966,4.9669,4.9692,4.9713,4.9719,4.9615,4.9602,4.9589,4.957,4.9717,4.9718,4.9825,4.9826,4.9826]}]]